N1JM KSEZ-KTEX

Flight info

Callsign N1JM
Flight time N/A
Altitude 41000
Route YOOPR CEZ HAVWU ETL
Aircraft C750/M-SBDE3FGHRWXY/S

Departure

Time 2026-04-25 22:11
Airport Sedona Airport (KSEZ)

Arrival

Time N/A
Airport Telluride Regional Airport (KTEX)
Time Latitude Longitude Altitude Speed Heading
2026-04-25 21:44 34.84887 -111.79153 4785 ft 0 kts 317°
2026-04-25 22:04 34.84894 -111.79160 4785 ft 0 kts 329°
2026-04-25 22:04 34.84897 -111.79161 4785 ft 0 kts 338°
2026-04-25 22:05 34.84902 -111.79162 4786 ft 0 kts 359°
2026-04-25 22:05 34.84903 -111.79162 4786 ft 0 kts
2026-04-25 22:05 34.84912 -111.79149 4787 ft 1 kts 50°
2026-04-25 22:05 34.84917 -111.79142 4787 ft 5 kts 49°
2026-04-25 22:06 34.84901 -111.79098 4788 ft 6 kts 138°
2026-04-25 22:06 34.84850 -111.79040 4783 ft 19 kts 135°
2026-04-25 22:06 34.84881 -111.78938 4785 ft 21 kts 46°
2026-04-25 22:06 34.85011 -111.78776 4794 ft 26 kts 45°
2026-04-25 22:07 34.85120 -111.78641 4806 ft 23 kts 45°
2026-04-25 22:07 34.85210 -111.78528 4823 ft 29 kts 46°
2026-04-25 22:07 34.85268 -111.78389 4829 ft 13 kts 136°
2026-04-25 22:07 34.85228 -111.78384 4829 ft 0 kts 226°
2026-04-25 22:08 34.85160 -111.78470 4816 ft 31 kts 227°
2026-04-25 22:08 34.85119 -111.78520 4811 ft 0 kts 225°
2026-04-25 22:08 34.85103 -111.78540 4822 ft 24 kts 227°
2026-04-25 22:08 34.84711 -111.79028 4776 ft 129 kts 225°
2026-04-25 22:09 34.84029 -111.79885 5033 ft 135 kts 223°
2026-04-25 22:09 34.83368 -111.80696 4979 ft 138 kts 221°
2026-04-25 22:09 34.82653 -111.81608 4651 ft 166 kts 223°
2026-04-25 22:09 34.81797 -111.82675 4721 ft 179 kts 222°
2026-04-25 22:10 34.80895 -111.83785 4819 ft 185 kts 214°
2026-04-25 22:10 34.79734 -111.84380 4922 ft 181 kts 193°
2026-04-25 22:10 34.78459 -111.84523 5099 ft 201 kts 177°
2026-04-25 22:10 34.77063 -111.84044 5275 ft 222 kts 156°
2026-04-25 22:11 34.75885 -111.82919 6664 ft 205 kts 139°
2026-04-25 22:11 34.75161 -111.81499 7959 ft 198 kts 119°
2026-04-25 22:11 34.74864 -111.79781 8743 ft 223 kts 98°
2026-04-25 22:11 34.75051 -111.77762 9251 ft 259 kts 78°
2026-04-25 22:12 34.75805 -111.75713 10064 ft 269 kts 57°
2026-04-25 22:12 34.77016 -111.74018 10938 ft 271 kts 39°
2026-04-25 22:12 34.78522 -111.72600 11716 ft 276 kts 34°
2026-04-25 22:12 34.79502 -111.71551 12283 ft 281 kts 43°
2026-04-25 22:13 34.81160 -111.69060 13318 ft 294 kts 52°
2026-04-25 22:13 34.82450 -111.66995 13626 ft 319 kts 50°
2026-04-25 22:13 34.83949 -111.64853 13892 ft 346 kts 46°
2026-04-25 22:13 34.85592 -111.62566 14063 ft 373 kts 47°
2026-04-25 22:14 34.87308 -111.60046 14142 ft 400 kts 49°
2026-04-25 22:14 34.89115 -111.57335 14307 ft 420 kts 49°
2026-04-25 22:14 34.90980 -111.54601 14973 ft 420 kts 48°
2026-04-25 22:14 34.92876 -111.51863 15632 ft 425 kts 48°
2026-04-25 22:15 34.94775 -111.49086 16307 ft 428 kts 49°
2026-04-25 22:15 34.96681 -111.46269 17022 ft 433 kts 49°
2026-04-25 22:15 34.98611 -111.43429 17809 ft 437 kts 48°
2026-04-25 22:16 35.02539 -111.37675 19178 ft 445 kts 48°
2026-04-25 22:16 35.04521 -111.34752 19839 ft 450 kts 48°
2026-04-25 22:16 35.06523 -111.31798 20547 ft 452 kts 48°
2026-04-25 22:16 35.08531 -111.28842 21341 ft 454 kts 48°
2026-04-25 22:17 35.10559 -111.25855 21935 ft 460 kts 47°
2026-04-25 22:17 35.12609 -111.22827 22541 ft 465 kts 47°
2026-04-25 22:17 35.14679 -111.19766 23164 ft 470 kts 47°
2026-04-25 22:17 35.16772 -111.16670 23728 ft 475 kts 47°
2026-04-25 22:18 35.18885 -111.13544 24263 ft 479 kts 48°
2026-04-25 22:18 35.21019 -111.10383 24762 ft 484 kts 48°
2026-04-25 22:18 35.23171 -111.07190 25259 ft 489 kts 49°
2026-04-25 22:18 35.25346 -111.03960 25756 ft 494 kts 49°
2026-04-25 22:19 35.27542 -111.00699 26231 ft 499 kts 49°
2026-04-25 22:19 35.29756 -110.97406 26735 ft 503 kts 49°
2026-04-25 22:19 35.31962 -110.94122 27206 ft 508 kts 49°
2026-04-25 22:19 35.34249 -110.90714 27699 ft 513 kts 49°
2026-04-25 22:20 35.36522 -110.87324 28192 ft 518 kts 49°
2026-04-25 22:20 35.38818 -110.83896 28695 ft 522 kts 49°
2026-04-25 22:20 35.41144 -110.80420 28930 ft 532 kts 49°
2026-04-25 22:20 35.43462 -110.76952 29514 ft 534 kts 49°
2026-04-25 22:21 35.45824 -110.73413 29950 ft 539 kts 49°
2026-04-25 22:21 35.48204 -110.69845 30355 ft 542 kts 49°
2026-04-25 22:21 35.50601 -110.66249 30778 ft 545 kts 49°
2026-04-25 22:21 35.52996 -110.62649 31396 ft 543 kts 48°
2026-04-25 22:22 35.55382 -110.59060 32016 ft 542 kts 48°
2026-04-25 22:22 35.57767 -110.55472 32609 ft 542 kts 47°
2026-04-25 22:22 35.60147 -110.51886 33216 ft 541 kts 47°
2026-04-25 22:22 35.62524 -110.48300 33831 ft 541 kts 47°
2026-04-25 22:23 35.64906 -110.44729 34329 ft 539 kts 46°
2026-04-25 22:23 35.67524 -110.41465 34801 ft 534 kts 37°
2026-04-25 22:23 35.70353 -110.38528 35369 ft 531 kts 33°
2026-04-25 22:23 35.73225 -110.35682 35935 ft 530 kts 33°
2026-04-25 22:24 35.76036 -110.32734 36476 ft 531 kts 35°
2026-04-25 22:24 35.78799 -110.29708 37025 ft 531 kts 35°
2026-04-25 22:24 35.81589 -110.26740 37576 ft 530 kts 33°
2026-04-25 22:24 35.84419 -110.23831 38178 ft 529 kts 33°
2026-04-25 22:25 35.87226 -110.20903 38694 ft 529 kts 34°
2026-04-25 22:25 35.90003 -110.17922 39161 ft 529 kts 34°
2026-04-25 22:25 35.92786 -110.14944 39453 ft 533 kts 33°
2026-04-25 22:25 35.95609 -110.11983 40006 ft 528 kts 33°
2026-04-25 22:26 35.98383 -110.09063 40681 ft 523 kts 33°
2026-04-25 22:26 36.01170 -110.06105 40711 ft 534 kts 34°
2026-04-25 22:26 36.04013 -110.03079 40711 ft 545 kts 34°
2026-04-25 22:26 36.06916 -109.99990 40717 ft 556 kts 34°
2026-04-25 22:27 36.09872 -109.96849 40727 ft 565 kts 34°
2026-04-25 22:27 36.15912 -109.90408 40708 ft 580 kts 34°
2026-04-25 22:28 36.22060 -109.83839 40706 ft 584 kts 34°
2026-04-25 22:28 36.28210 -109.77256 40716 ft 584 kts 35°
2026-04-25 22:29 36.34329 -109.70694 40685 ft 586 kts 35°
2026-04-25 22:29 36.40528 -109.64029 40687 ft 586 kts 35°
2026-04-25 22:30 36.49717 -109.54124 40679 ft 586 kts 35°
2026-04-25 22:30 36.54876 -109.48550 40693 ft 586 kts 35°
2026-04-25 22:31 36.62041 -109.40787 40685 ft 581 kts 35°
2026-04-25 22:31 36.68141 -109.34170 40680 ft 582 kts 35°
2026-04-25 22:32 36.74240 -109.27531 40682 ft 582 kts 36°
2026-04-25 22:32 36.80301 -109.20924 40686 ft 583 kts 35°
2026-04-25 22:33 36.86393 -109.14267 40683 ft 583 kts 35°
2026-04-25 22:33 36.92495 -109.07585 40674 ft 582 kts 36°
2026-04-25 22:34 36.98577 -109.00908 40675 ft 582 kts 36°
2026-04-25 22:34 37.04660 -108.94218 40681 ft 582 kts 36°
2026-04-25 22:35 37.10743 -108.87511 40681 ft 583 kts 36°
2026-04-25 22:35 37.16814 -108.80803 40700 ft 581 kts 36°
2026-04-25 22:36 37.22862 -108.74106 40699 ft 579 kts 36°
2026-04-25 22:36 37.28903 -108.67403 40902 ft 580 kts 36°